Weather History for Vicksburg Municipal, MS

Change the Weather History Date:

Thursday, March 20, 2014

  Actual Average (KTVR) Record (KTVR)
Temperature  
Mean Temperature 56 °F 58 °F  
Max Temperature 69 °F 70 °F 87 °F (1982)
Min Temperature 42 °F 47 °F 24 °F (1965)
Degree Days  
Heating Degree Days 10 7  
Month to date heating degree days 194  
Since 1 July heating degree days 2170  
Cooling Degree Days 0 1  
Month to date cooling degree days 17  
Year to date cooling degree days 26  
Growing Degree Days 6 (Base 50)    
Moisture  
Dew Point 37 °F    
Average Humidity 54    
Maximum Humidity 93    
Minimum Humidity 23    
Precipitation  
Precipitation 0.00 in 0.13 in 2.16 in (2002)
Month to date precipitation 3.32  
Year to date precipitation 13.66  
Sea Level Pressure  
Sea Level Pressure 30.14 in    
Wind  
Wind Speed 3 mph (North)    
Max Wind Speed 9 mph    
Max Gust Speed 16 mph    
Visibility 10 miles    
Events      
T = Trace of Precipitation, MM = Missing Value Source: NWS Daily Summary

Daily Weather History Graph

Daily Weather History Graph

Search for Another Location

Airport:

Trip Planner

Search our weather history database for the weather conditions in past years. The results will help you decide how hot, cold, wet, or windy it might be!

Date:

Astronomy

Mar. 20, 2014 Rise Set
Actual Time 7:07 AM CDT 7:15 PM CDT
Civil Twilight 6:43 AM CDT 7:39 PM CDT
Nautical Twilight 6:14 AM CDT 8:08 PM CDT
Astronomical Twilight 5:45 AM CDT 8:37 PM CDT
Moon 11:20 PM CDT (3/20) 9:27 AM CDT (3/20)
Length of Visible Light 12h 56m
Length of Day
12h 07m
Waning Gibbous, 84% of the Moon is Illuminated
Mar 20
Waning Gibbous
Mar 23
Last Quarter
Mar 30
New
Apr 7
First Quarter
Apr 15
Full

Hourly Weather History & Observations

Time (CDT) Temp. Windchill Dew Point Humidity Pressure Visibility Wind Dir Wind Speed Gust Speed Precip Events Conditions
12:15 AM 55.4 °F - 41.0 °F 58% 30.13 in 10.0 mi North 4.6 mph - N/A   Overcast
12:35 AM 55.4 °F - 39.2 °F 54% 30.13 in 10.0 mi Calm Calm - N/A   Overcast
12:55 AM 51.8 °F - 41.0 °F 67% 30.14 in 10.0 mi Calm Calm - N/A   Overcast
1:15 AM 50.0 °F - 42.8 °F 76% 30.14 in 10.0 mi Calm Calm - N/A   Overcast
1:35 AM 50.0 °F - 42.8 °F 76% 30.14 in 10.0 mi Calm Calm - N/A   Overcast
1:55 AM 50.0 °F - 41.0 °F 71% 30.15 in 10.0 mi Calm Calm - N/A   Overcast
2:15 AM 48.2 °F - 42.8 °F 82% 30.15 in 10.0 mi Calm Calm - N/A   Overcast
2:35 AM 48.2 °F - 42.8 °F 82% 30.15 in 10.0 mi Calm Calm - N/A   Overcast
2:55 AM 46.4 °F - 42.8 °F 87% 30.15 in 10.0 mi Calm Calm - N/A   Overcast
3:15 AM 46.4 °F - 42.8 °F 87% 30.15 in 10.0 mi Calm Calm - N/A   Overcast
3:35 AM 46.4 °F - 42.8 °F 87% 30.15 in 10.0 mi Calm Calm - N/A   Overcast
3:55 AM 44.6 °F - 42.8 °F 93% 30.15 in 10.0 mi Calm Calm - N/A   Overcast
4:15 AM 46.4 °F - 42.8 °F 87% 30.16 in 10.0 mi Calm Calm - N/A   Overcast
4:35 AM 46.4 °F - 42.8 °F 87% 30.16 in 10.0 mi Calm Calm - N/A   Overcast
4:55 AM 44.6 °F - 42.8 °F 93% 30.16 in 10.0 mi Calm Calm - N/A   Overcast
5:15 AM 44.6 °F - 42.8 °F 93% 30.17 in 10.0 mi Calm Calm - N/A   Overcast
5:35 AM 44.6 °F - 42.8 °F 93% 30.17 in 10.0 mi Calm Calm - N/A   Overcast
5:55 AM 44.6 °F - 41.0 °F 87% 30.17 in 10.0 mi Calm Calm - N/A   Overcast
6:15 AM 42.8 °F - 39.2 °F 87% 30.17 in 10.0 mi Calm Calm - N/A   Overcast
6:35 AM 42.8 °F 40.1 °F 41.0 °F 93% 30.18 in 10.0 mi North 4.6 mph - N/A   Overcast
6:55 AM 46.4 °F 44.3 °F 41.0 °F 81% 30.19 in 10.0 mi NE 4.6 mph - N/A   Overcast
7:15 AM 48.2 °F - 39.2 °F 71% 30.19 in 10.0 mi NE 4.6 mph - N/A   Scattered Clouds
7:35 AM 48.2 °F - 39.2 °F 71% 30.20 in 10.0 mi North 3.5 mph - N/A   Clear
7:55 AM 48.2 °F - 39.2 °F 71% 30.20 in 10.0 mi NNE 4.6 mph - N/A   Clear
8:15 AM 51.8 °F - 39.2 °F 62% 30.21 in 10.0 mi Calm Calm - N/A   Clear
8:35 AM 51.8 °F - 39.2 °F 62% 30.21 in 10.0 mi Variable 4.6 mph - N/A   Clear
8:55 AM 53.6 °F - 37.4 °F 54% 30.21 in 10.0 mi East 6.9 mph - N/A   Clear
9:15 AM 55.4 °F - 37.4 °F 51% 30.21 in 10.0 mi NE 9.2 mph - N/A   Clear
9:35 AM 57.2 °F - 35.6 °F 44% 30.21 in 10.0 mi East 8.1 mph 16.1 mph N/A   Clear
9:55 AM 57.2 °F - 35.6 °F 44% 30.21 in 10.0 mi Variable 6.9 mph 15.0 mph N/A   Clear
10:15 AM 59.0 °F - 35.6 °F 42% 30.22 in 10.0 mi East 9.2 mph - N/A   Clear
10:35 AM 59.0 °F - 33.8 °F 39% 30.22 in 10.0 mi NE 9.2 mph - N/A   Clear
10:55 AM 60.8 °F - 33.8 °F 36% 30.22 in 10.0 mi Variable 5.8 mph 11.5 mph N/A   Clear
11:15 AM 60.8 °F - 33.8 °F 36% 30.22 in 10.0 mi Variable 3.5 mph - N/A   Clear
11:35 AM 62.6 °F - 33.8 °F 34% 30.21 in 10.0 mi NE 5.8 mph - N/A   Clear
11:55 AM 62.6 °F - 33.8 °F 34% 30.20 in 10.0 mi Calm Calm - N/A   Clear
12:15 PM 62.6 °F - 33.8 °F 34% 30.19 in 10.0 mi Variable 4.6 mph - N/A   Clear
12:35 PM 64.4 °F - 33.8 °F 32% 30.19 in 10.0 mi Calm Calm - N/A   Clear
12:55 PM 64.4 °F - 33.8 °F 32% 30.18 in 10.0 mi Variable 3.5 mph - N/A   Clear
1:15 PM 66.2 °F - 33.8 °F 30% 30.17 in 10.0 mi Variable 5.8 mph - N/A   Clear
1:35 PM 66.2 °F - 32.0 °F 28% 30.16 in 10.0 mi NNW 4.6 mph - N/A   Clear
1:55 PM 68.0 °F - 33.8 °F 28% 30.15 in 10.0 mi Variable 4.6 mph - N/A   Clear
2:15 PM 68.0 °F - 33.8 °F 28% 30.14 in 10.0 mi NW 6.9 mph 13.8 mph N/A   Clear
2:35 PM 68.0 °F - 35.6 °F 30% 30.13 in 10.0 mi WNW 9.2 mph - N/A   Clear
2:55 PM 68.0 °F - 33.8 °F 28% 30.12 in 10.0 mi Variable 6.9 mph 12.7 mph N/A   Clear
3:15 PM 68.0 °F - 33.8 °F 28% 30.12 in 10.0 mi NW 9.2 mph - N/A   Clear
3:35 PM 69.8 °F - 33.8 °F 27% 30.11 in 10.0 mi WNW 8.1 mph - N/A   Clear
3:55 PM 69.8 °F - 32.0 °F 25% 30.10 in 10.0 mi North 6.9 mph 16.1 mph N/A   Clear
4:15 PM 69.8 °F - 32.0 °F 25% 30.10 in 10.0 mi NW 5.8 mph - N/A   Clear
4:35 PM 69.8 °F - 32.0 °F 25% 30.10 in 10.0 mi North 8.1 mph - N/A   Clear
4:55 PM 69.8 °F - 32.0 °F 25% 30.09 in 10.0 mi NW 8.1 mph - N/A   Clear
5:15 PM 69.8 °F - 30.2 °F 23% 30.09 in 10.0 mi WNW 6.9 mph - N/A   Clear
5:35 PM 69.8 °F - 30.2 °F 23% 30.09 in 10.0 mi NW 4.6 mph - N/A   Clear
5:55 PM 68.0 °F - 30.2 °F 24% 30.09 in 10.0 mi West 4.6 mph - N/A   Clear
6:15 PM 68.0 °F - 30.2 °F 24% 30.08 in 10.0 mi NNW 4.6 mph - N/A   Clear
6:35 PM 68.0 °F - 28.4 °F 23% 30.08 in 10.0 mi NW 3.5 mph - N/A   Clear
6:55 PM 66.2 °F - 28.4 °F 24% 30.08 in 10.0 mi Calm Calm - N/A   Clear
7:15 PM 64.4 °F - 30.2 °F 28% 30.08 in 10.0 mi Calm Calm - N/A   Clear
7:35 PM 60.8 °F - 33.8 °F 36% 30.08 in 10.0 mi Calm Calm - N/A   Clear
7:55 PM 59.0 °F - 33.8 °F 39% 30.09 in 10.0 mi Calm Calm - N/A   Scattered Clouds
8:15 PM 57.2 °F - 33.8 °F 41% 30.08 in 10.0 mi Calm Calm - N/A   Overcast
8:35 PM 55.4 °F - 41.0 °F 58% 30.08 in 10.0 mi Calm Calm - N/A   Mostly Cloudy
8:55 PM 53.6 °F - 39.2 °F 58% 30.09 in 9.0 mi Calm Calm - N/A   Mostly Cloudy
9:15 PM 53.6 °F - 37.4 °F 54% 30.09 in 10.0 mi Calm Calm - N/A   Mostly Cloudy
9:35 PM 51.8 °F - 37.4 °F 58% 30.10 in 10.0 mi Calm Calm - N/A   Scattered Clouds
9:55 PM 50.0 °F - 39.2 °F 66% 30.10 in 10.0 mi Calm Calm - N/A   Partly Cloudy
10:15 PM 50.0 °F - 37.4 °F 62% 30.10 in 10.0 mi Calm Calm - N/A   Clear
10:35 PM 48.2 °F - 39.2 °F 71% 30.10 in 10.0 mi Calm Calm - N/A   Partly Cloudy
10:55 PM 48.2 °F - 37.4 °F 66% 30.09 in 10.0 mi Calm Calm - N/A   Partly Cloudy
11:15 PM 46.4 °F - 39.2 °F 76% 30.09 in 10.0 mi Calm Calm - N/A   Mostly Cloudy
11:35 PM 44.6 °F - 39.2 °F 81% 30.09 in 10.0 mi Calm Calm - N/A   Mostly Cloudy
11:55 PM 44.6 °F - 37.4 °F 76% 30.09 in 10.0 mi Calm Calm - N/A   Mostly Cloudy